| time (UTC) | temp F | wind direction | speed knots | gust knots | rain 1hr in | rain 24hr in | rain mn in | humidity % | barometer mb |
| 20260507114529 | 41 | 360 | 0.0 | 2.6 | 0.00 | 0.00 | 0.00 | 84 | 1013.3 |
| 20260507113027 | 40 | 360 | 0.9 | 2.6 | 0.00 | 0.00 | 0.00 | 85 | 1013.4 |
| 20260507111524 | 39 | 360 | 0.0 | 0.0 | 0.00 | 0.00 | 0.00 | 86 | 1013.2 |
| 20260507110022 | 39 | 360 | 0.0 | 0.0 | 0.00 | 0.00 | 0.00 | 86 | 1013.0 |
| 20260507104526 | 39 | 360 | 0.0 | 0.0 | 0.00 | 0.00 | 0.00 | 86 | 1012.7 |
| 20260507103023 | 39 | 360 | 0.0 | 0.0 | 0.00 | 0.00 | 0.00 | 86 | 1012.7 |
| 20260507101527 | 40 | 360 | 0.0 | 0.0 | 0.00 | 0.00 | 0.00 | 86 | 1012.7 |
| 20260507100026 | 40 | 360 | 0.0 | 0.0 | 0.00 | 0.00 | 0.00 | 86 | 1012.6 |
| 20260507094515 | 40 | 360 | 0.0 | 0.0 | 0.00 | 0.00 | 0.00 | 86 | 1012.7 |
| 20260507093012 | 40 | 360 | 0.0 | 0.0 | 0.00 | 0.00 | 0.00 | 86 | 1012.6 |
| 20260507091528 | 41 | 360 | 0.0 | 0.0 | 0.00 | 0.00 | 0.00 | 86 | 1012.5 |
| 20260507090009 | 41 | 360 | 0.0 | 0.0 | 0.00 | 0.00 | 0.00 | 87 | 1012.4 |
| 20260507084508 | 41 | 360 | 0.0 | 0.0 | 0.00 | 0.00 | 0.00 | 87 | 1012.2 |
| 20260507083006 | 41 | 360 | 0.0 | 0.0 | 0.00 | 0.00 | 0.00 | 86 | 1012.1 |
| 20260507081505 | 42 | 360 | 0.0 | 0.0 | 0.00 | 0.00 | 0.00 | 87 | 1012.2 |
| 20260507080007 | 42 | 360 | 0.0 | 0.0 | 0.00 | 0.00 | 0.00 | 87 | 1012.1 |
| 20260507074508 | 42 | 360 | 0.0 | 0.0 | 0.00 | 0.00 | 0.00 | 86 | 1012.0 |
| 20260507073004 | 42 | 360 | 0.0 | 0.0 | 0.00 | 0.00 | 0.00 | 86 | 1012.1 |
| 20260507071502 | 42 | 360 | 0.0 | 0.0 | 0.00 | 0.00 | 0.00 | 86 | 1012.0 |
| 20260507070139 | 43 | 360 | 0.0 | 0.0 | 0.00 | 0.00 | 0.00 | 86 | 1012.1 |
| 20260507064600 | 43 | 360 | 0.0 | 0.0 | 0.00 | 0.00 | 0.00 | 85 | 1012.1 |
| 20260507063101 | 43 | 360 | 0.0 | 0.0 | 0.00 | 0.00 | 0.00 | 85 | 1012.3 |
| 20260507061556 | 43 | 360 | 0.0 | 0.0 | 0.00 | 0.00 | 0.00 | 85 | 1012.2 |
| 20260507060054 | 44 | 360 | 0.0 | 0.0 | 0.00 | 0.00 | 0.00 | 85 | 1012.2 |
| 20260507054557 | 44 | 360 | 0.0 | 0.0 | 0.00 | 0.00 | 0.00 | 85 | 1012.4 |
| 20260507053054 | 44 | 360 | 0.0 | 0.0 | 0.00 | 0.00 | 0.00 | 85 | 1012.3 |
| 20260507051553 | 44 | 360 | 0.0 | 0.0 | 0.00 | 0.00 | 0.00 | 85 | 1012.2 |
| 20260507050052 | 44 | 360 | 0.0 | 0.0 | 0.00 | 0.00 | 0.00 | 85 | 1012.4 |
| 20260507044550 | 44 | 360 | 0.0 | 0.0 | 0.00 | 0.00 | 0.00 | 84 | 1012.5 |
| 20260507043048 | 44 | 360 | 0.0 | 0.0 | 0.00 | 0.00 | 0.00 | 83 | 1012.3 |
| 20260507041546 | 45 | 360 | 0.0 | 0.0 | 0.00 | 0.00 | 0.00 | 82 | 1012.2 |
| 20260507040048 | 46 | 360 | 0.0 | 0.0 | 0.00 | 0.00 | 0.00 | 82 | 1012.2 |
| 20260507034546 | 46 | 360 | 0.0 | 0.0 | 0.00 | 0.00 | 0.00 | 82 | 1012.1 |
| 20260507033043 | 46 | 360 | 0.0 | 0.0 | 0.00 | 0.00 | 0.00 | 81 | 1012.2 |
| 20260507031543 | 46 | 360 | 0.0 | 0.0 | 0.00 | 0.00 | 0.00 | 81 | 1012.2 |
| 20260507030043 | 47 | 360 | 0.0 | 0.0 | 0.00 | 0.00 | 0.00 | 81 | 1012.2 |
| 20260507024543 | 48 | 360 | 0.0 | 0.0 | 0.00 | 0.00 | 0.00 | 79 | 1012.2 |
| 20260507023039 | 49 | 360 | 0.0 | 0.0 | 0.00 | 0.00 | 0.00 | 79 | 1012.2 |
| 20260507021540 | 49 | 360 | 0.0 | 0.0 | 0.00 | 0.00 | 0.00 | 77 | 1012.1 |
| 20260507020037 | 49 | 360 | 0.0 | 0.9 | 0.00 | 0.00 | 0.00 | 76 | 1011.9 |
| 20260507014541 | 50 | 360 | 0.0 | 1.7 | 0.00 | 0.00 | 0.00 | 74 | 1011.8 |
| 20260507013035 | 51 | 360 | 0.0 | 1.7 | 0.00 | 0.00 | 0.00 | 72 | 1011.6 |
| 20260507011533 | 52 | 360 | 0.0 | 0.0 | 0.00 | 0.00 | 0.00 | 70 | 1011.3 |
| 20260507010032 | 53 | 360 | 0.0 | 0.9 | 0.00 | 0.00 | 0.00 | 66 | 1011.4 |
| 20260507004531 | 54 | 360 | 0.0 | 0.9 | 0.00 | 0.00 | 0.00 | 63 | 1011.3 |
| 20260507003029 | 55 | 360 | 0.0 | 2.6 | 0.00 | 0.00 | 0.00 | 61 | 1011.3 |
| 20260507001528 | 56 | 360 | 0.9 | 4.3 | 0.00 | 0.00 | 0.00 | 58 | 1011.1 |
| 20260507000028 | 56 | 360 | 0.9 | 5.2 | 0.00 | 0.00 | 0.00 | 57 | 1010.8 |
| 20260506234527 | 56 | 360 | 1.7 | 4.3 | 0.00 | 0.00 | 0.00 | 59 | 1010.7 |
| 20260506233026 | 57 | 360 | 1.7 | 7.8 | 0.00 | 0.00 | 0.00 | 58 | 1010.7 |
| 20260506231527 | 57 | 360 | 3.5 | 7.8 | 0.00 | 0.00 | 0.00 | 55 | 1010.6 |
| 20260506230024 | 58 | 360 | 3.5 | 7.0 | 0.00 | 0.00 | 0.00 | 54 | 1010.6 |
| 20260506224524 | 58 | 360 | 2.6 | 8.7 | 0.00 | 0.00 | 0.00 | 55 | 1010.7 |
| 20260506223023 | 58 | 360 | 1.7 | 5.2 | 0.00 | 0.00 | 0.00 | 54 | 1010.8 |
| 20260506221524 | 58 | 360 | 2.6 | 7.0 | 0.00 | 0.00 | 0.00 | 54 | 1010.9 |
| 20260506220029 | 58 | 360 | 1.7 | 5.2 | 0.00 | 0.00 | 0.00 | 53 | 1011.1 |
| 20260506214521 | 58 | 360 | 1.7 | 4.3 | 0.00 | 0.00 | 0.00 | 55 | 1011.0 |
| 20260506213020 | 58 | 360 | 2.6 | 8.7 | 0.00 | 0.00 | 0.00 | 55 | 1010.8 |
| 20260506211521 | 58 | 360 | 1.7 | 8.7 | 0.00 | 0.00 | 0.00 | 54 | 1010.8 |
| 20260506210021 | 58 | 360 | 3.5 | 7.0 | 0.00 | 0.00 | 0.00 | 52 | 1010.5 |
| 20260506204524 | 58 | 360 | 2.6 | 8.7 | 0.00 | 0.00 | 0.00 | 54 | 1010.5 |
| 20260506203018 | 59 | 360 | 4.3 | 9.6 | 0.00 | 0.00 | 0.00 | 54 | 1010.6 |
| 20260506201528 | 58 | 360 | 0.9 | 5.2 | 0.00 | 0.00 | 0.00 | 55 | 1010.5 |
| 20260506200025 | 58 | 360 | 1.7 | 7.0 | 0.00 | 0.00 | 0.00 | 54 | 1010.6 |
| 20260506194517 | 59 | 360 | 0.9 | 7.0 | 0.00 | 0.00 | 0.00 | 52 | 1010.5 |
| 20260506193016 | 59 | 360 | 3.5 | 8.7 | 0.00 | 0.00 | 0.00 | 51 | 1010.4 |
| 20260506191514 | 60 | 360 | 3.5 | 9.6 | 0.00 | 0.00 | 0.00 | 53 | 1010.1 |
| 20260506190014 | 60 | 360 | 0.9 | 7.0 | 0.00 | 0.00 | 0.00 | 58 | 1010.3 |
| 20260506184515 | 60 | 360 | 3.5 | 7.8 | 0.00 | 0.00 | 0.00 | 54 | 1010.2 |
| 20260506183012 | 61 | 360 | 3.5 | 8.7 | 0.00 | 0.00 | 0.00 | 53 | 1010.0 |
| 20260506181515 | 61 | 360 | 2.6 | 9.6 | 0.00 | 0.00 | 0.00 | 51 | 1010.0 |
| 20260506180012 | 61 | 360 | 1.7 | 8.7 | 0.00 | 0.00 | 0.00 | 51 | 1010.2 |
| 20260506174512 | 61 | 360 | 2.6 | 7.0 | 0.00 | 0.00 | 0.00 | 52 | 1010.4 |
| 20260506173008 | 61 | 360 | 2.6 | 9.6 | 0.00 | 0.00 | 0.00 | 55 | 1010.6 |
| 20260506171507 | 60 | 360 | 5.2 | 11.3 | 0.00 | 0.00 | 0.00 | 55 | 1010.5 |
| 20260506170004 | 59 | 360 | 2.6 | 7.8 | 0.00 | 0.00 | 0.00 | 63 | 1010.7 |
| 20260506164604 | 58 | 360 | 2.6 | 9.6 | 0.00 | 0.00 | 0.00 | 59 | 1010.9 |
| 20260506163200 | 58 | 360 | 3.5 | 10.4 | 0.00 | 0.00 | 0.00 | 59 | 1010.7 |
| 20260506161600 | 58 | 360 | 1.7 | 9.6 | 0.00 | 0.00 | 0.00 | 62 | 1010.8 |
| 20260506160052 | 56 | 360 | 4.3 | 8.7 | 0.00 | 0.00 | 0.00 | 62 | 1010.6 |
| 20260506154552 | 55 | 360 | 3.5 | 7.8 | 0.00 | 0.00 | 0.00 | 65 | 1010.6 |
| 20260506153047 | 54 | 360 | 1.7 | 5.2 | 0.00 | 0.00 | 0.00 | 64 | 1010.6 |
| 20260506151542 | 54 | 360 | 2.6 | 8.7 | 0.00 | 0.00 | 0.00 | 69 | 1010.9 |
| 20260506150040 | 53 | 360 | 2.6 | 7.8 | 0.00 | 0.00 | 0.00 | 70 | 1010.1 |
| 20260506144538 | 51 | 360 | 1.7 | 8.7 | 0.00 | 0.00 | 0.00 | 70 | 1009.8 |
| 20260506143034 | 50 | 360 | 2.6 | 10.4 | 0.00 | 0.00 | 0.00 | 76 | 1009.4 |
| 20260506141532 | 49 | 360 | 1.7 | 10.4 | 0.00 | 0.00 | 0.00 | 78 | 1009.5 |
| 20260506140038 | 49 | 360 | 3.5 | 9.6 | 0.00 | 0.00 | 0.00 | 80 | 1009.5 |
| 20260506134529 | 48 | 360 | 2.6 | 8.7 | 0.00 | 0.00 | 0.00 | 82 | 1009.4 |
| 20260506133028 | 47 | 360 | 3.5 | 7.0 | 0.00 | 0.00 | 0.00 | 84 | 1009.5 |
| 20260506131532 | 47 | 360 | 2.6 | 7.8 | 0.00 | 0.00 | 0.00 | 85 | 1009.3 |
| 20260506130026 | 46 | 360 | 1.7 | 5.2 | 0.00 | 0.00 | 0.00 | 85 | 1009.3 |
| 20260506124524 | 46 | 360 | 1.7 | 5.2 | 0.00 | 0.00 | 0.00 | 86 | 1009.0 |
| 20260506123022 | 45 | 360 | 1.7 | 5.2 | 0.00 | 0.00 | 0.00 | 87 | 1008.8 |
| 20260506121519 | 45 | 360 | 0.0 | 5.2 | 0.00 | 0.00 | 0.00 | 88 | 1008.8 |
| 20260506120016 | 45 | 360 | 1.7 | 7.0 | 0.00 | 0.00 | 0.00 | 89 | 1008.2 |